GW1374 Weather Reports


Display with metric or nautical units.
time (UTC)temp
F
wind
direction
speed
MPH
gust
MPH
rain 1hr
in
rain 24hr
in
rain mn
in
humidity
%
barometer
mb
20260903064552 64 273 1.0 2.0 0.00 1.45 0.13 98 1015.1
20260903063059 64 273 1.0 2.0 0.01 1.45 0.13 98 1014.5
20260903061605 64 273 1.0 2.0 0.01 1.45 0.13 98 1015.1
20260903060054 64 273 1.0 2.0 0.01 1.45 0.13 98 1015.4
20260903054550 64 273 1.0 2.0 0.01 1.45 0.13 97 1015.6
20260903053054 64 273 1.0 2.0 0.02 1.44 0.12 97 1015.2
20260903051553 64 273 1.0 2.0 0.07 1.44 0.12 98 1015.3
20260903050052 64 273 1.0 2.0 0.12 1.44 0.12 98 1015.6
20260903044556 64 273 1.0 2.0 0.26 1.44 0.12 97 1015.2
20260903043053 65 273 1.0 2.0 0.26 1.42 0.10 97 1015.3
20260903041552 65 273 1.0 2.0 0.24 1.37 0.05 97 1016.6
20260903040100 65 273 1.0 2.0 0.22 1.32 0.00 97 1017.3
20260903034600 66 273 1.0 2.0 0.13 1.17 1.17 97 1018.4
20260903033052 66 273 1.0 2.0 0.15 1.16 1.16 98 1015.0
20260903031600 66 273 1.0 2.0 0.16 1.13 1.13 98 1015.8
20260903030054 65 273 1.0 2.0 0.16 1.09 1.09 98 1016.2
20260903024554 65 273 1.0 2.0 0.60 1.04 1.04 97 1017.1
20260903023120 64 273 1.0 2.0 0.78 1.01 1.01 97 1017.8
20260903021556 64 273 1.0 2.0 0.74 0.97 0.97 97 1016.5
20260903020059 64 273 1.0 4.0 0.69 0.92 0.92 96 1017.1
20260903014601 67 9 4.0 14.0 0.18 0.41 0.41 95 1019.1
20260903013053 68 0 1.0 3.0 0.01 0.23 0.23 97 1016.6
20260903011557 68 178 1.0 2.0 0.01 0.23 0.23 97 1017.0
20260903010058 68 205 1.0 4.0 0.01 0.23 0.23 97 1016.5
20260903004555 68 190 1.0 2.0 0.01 0.23 0.23 96 1015.9
20260903003053 68 178 1.0 4.0 0.00 0.22 0.22 96 1015.8
20260903001556 68 188 1.0 3.0 0.00 0.22 0.22 97 1016.2
20260903000053 68 168 1.0 3.0 0.00 0.22 0.22 97 1016.0
20260902234603 68 205 1.0 4.0 0.00 0.22 0.22 97 1015.9
20260902233047 68 162 1.0 4.0 0.00 0.22 0.22 97 1016.0
20260902231600 68 137 0.0 2.0 0.00 0.22 0.22 97 1016.5
20260902230053 68 0 1.0 4.0 0.00 0.22 0.22 97 1016.1
20260902224600 68 146 1.0 4.0 0.00 0.22 0.22 97 1015.9
20260902223101 69 170 1.0 5.0 0.00 0.22 0.22 97 1015.9
20260902221552 69 198 1.0 7.0 0.00 0.22 0.22 97 1016.0
20260902220100 69 178 1.0 3.0 0.00 0.22 0.22 97 1016.2
20260902214552 69 153 1.0 4.0 0.00 0.22 0.22 97 1016.4
20260902213050 69 195 1.0 3.0 0.00 0.22 0.22 97 1016.7
20260902211607 69 188 1.0 2.0 0.00 0.22 0.22 97 1016.7
20260902210054 69 137 1.0 4.0 0.00 0.22 0.22 97 1016.9
20260902204553 69 221 1.0 4.0 0.00 0.22 0.22 98 1017.1
20260902203103 69 238 1.0 4.0 0.00 0.22 0.22 97 1016.5
20260902201604 69 218 1.0 5.0 0.00 0.22 0.22 97 1016.7
20260902200052 68 229 1.0 4.0 0.00 0.22 0.22 97 1016.8
20260902194553 68 165 2.0 5.0 0.00 0.22 0.22 98 1017.2
20260902193059 68 196 1.0 4.0 0.00 0.22 0.22 98 1017.5
20260902191552 68 178 1.0 4.0 0.00 0.22 0.22 98 1017.6
20260902190104 68 218 1.0 3.0 0.00 0.22 0.22 98 1017.6
20260902184557 67 178 1.0 4.0 0.00 0.22 0.22 98 1017.5
20260902183053 68 178 1.0 2.0 0.00 0.22 0.22 98 1017.4
20260902181602 67 219 1.0 4.0 0.00 0.22 0.22 98 1017.6
20260902180059 67 153 1.0 4.0 0.00 0.22 0.22 97 1018.0
20260902174556 68 221 1.0 4.0 0.00 0.22 0.22 97 1018.1
20260902173052 68 144 1.0 4.0 0.00 0.22 0.22 97 1018.2
20260902171610 68 171 1.0 4.0 0.00 0.22 0.22 97 1018.5
20260902170054 68 265 0.0 2.0 0.00 0.22 0.22 97 1018.6
20260902164551 68 126 0.0 2.0 0.01 0.22 0.22 97 1018.7
20260902163056 69 162 1.0 3.0 0.03 0.22 0.22 98 1018.8
20260902161555 69 0 0.0 2.0 0.06 0.22 0.22 98 1018.9
20260902160107 69 0 0.0 2.0 0.09 0.22 0.22 98 1018.7
20260902154557 69 158 1.0 16.0 0.10 0.21 0.21 98 1018.2
20260902153058 69 196 1.0 4.0 0.12 0.19 0.19 98 1018.6
20260902151556 69 41 0.0 2.0 0.16 0.16 0.16 98 1018.6
20260902150052 69 229 0.0 2.0 0.13 0.13 0.13 98 1018.4
20260902144555 69 178 0.0 2.0 0.10 0.12 0.10 98 1018.4
20260902143052 69 123 1.0 3.0 0.07 0.09 0.07 98 1018.3
20260902141554 69 178 0.0 4.0 0.00 0.02 0.00 98 1018.1
20260902140058 69 0 0.0 2.0 0.00 0.02 0.00 98 1018.5
20260902134556 69 178 0.0 2.0 0.00 0.22 0.00 98 1019.0
20260902133105 69 0 0.0 2.0 0.00 0.22 0.00 98 1018.8
20260902131552 69 153 1.0 4.0 0.00 0.22 0.00 98 1017.9
20260902130057 69 178 0.0 2.0 0.00 0.22 0.00 98 1018.2
20260902124551 69 162 1.0 2.0 0.00 0.38 0.00 98 1018.1
20260902123104 69 178 0.0 2.0 0.00 0.38 0.00 98 1018.2
20260902121555 68 178 1.0 2.0 0.00 0.38 0.00 98 1017.9
20260902120051 68 178 0.0 2.0 0.00 0.38 0.00 98 1017.8
20260902114553 68 0 0.0 3.0 0.00 0.55 0.00 98 1017.7
20260902113057 68 178 1.0 2.0 0.00 0.55 0.00 98 1017.5
20260902111552 68 0 0.0 2.0 0.00 0.55 0.00 97 1017.6
20260902104547 68 165 1.0 2.0 0.00 0.56 0.00 98 1017.4
20260902103057 68 162 0.0 2.0 0.00 0.56 0.00 97 1017.7
20260902101551 68 178 0.0 1.0 0.00 0.56 0.00 98 1017.7
20260902100053 68 0 0.0 2.0 0.00 0.56 0.00 98 1017.8
20260902094557 68 178 0.0 2.0 0.00 0.56 0.00 98 1017.7
20260902093052 68 178 0.0 2.0 0.00 0.56 0.00 98 1017.8
20260902091601 68 0 0.0 2.0 0.00 0.56 0.00 98 1017.6
20260902090057 67 162 0.0 1.0 0.00 0.56 0.00 98 1017.6
20260902084558 67 0 0.0 1.0 0.00 0.61 0.00 98 1017.9
20260902083057 67 0 0.0 2.0 0.00 0.61 0.00 98 1017.8
20260902081548 67 153 0.0 2.0 0.00 0.61 0.00 97 1017.6
20260902080112 67 162 0.0 2.0 0.00 0.61 0.00 97 1017.4
20260902074552 67 0 0.0 1.0 0.00 0.61 0.00 97 1017.5
20260902073048 67 0 0.0 2.0 0.00 0.61 0.00 97 1017.5
20260902071559 68 205 0.0 1.0 0.00 0.61 0.00 97 1017.3
20260902070054 68 165 0.0 2.0 0.00 0.61 0.00 97 1017.4